Weather History for Fergus Falls, MN

Change the Weather History Date:

Tuesday, September 24, 2013

  Actual Average Record
Temperature  
Mean Temperature 63 °F -  
Max Temperature 71 °F 64 °F 81 °F (1949)
Min Temperature 55 °F 42 °F 29 °F (1951)
Degree Days  
Heating Degree Days 2    
Growing Degree Days 13 (Base 50)    
Moisture  
Dew Point 50 °F    
Average Humidity 66    
Maximum Humidity 82    
Minimum Humidity 50    
Precipitation  
Precipitation 0.00 in - - ()
Sea Level Pressure  
Sea Level Pressure 29.90 in    
Wind  
Wind Speed 8 mph (SSE)    
Max Wind Speed 16 mph    
Max Gust Speed 22 mph    
Visibility 10 miles    
Events      
Averages and records for this station are not official NWS values.
T = Trace of Precipitation, MM = Missing Value Source: NWS Daily Summary

Daily Weather History Graph

Daily Weather History Graph

Search for Another Location

Airport:

Trip Planner

Search our weather history database for the weather conditions in past years. The results will help you decide how hot, cold, wet, or windy it might be!

Date:

Astronomy

Sep. 24, 2013 Rise Set
Actual Time 7:14 AM CDT 7:17 PM CDT
Civil Twilight 6:44 AM CDT 7:47 PM CDT
Nautical Twilight 6:09 AM CDT 8:22 PM CDT
Astronomical Twilight 5:33 AM CDT 8:58 PM CDT
Moon 10:18 PM CDT (9/24) 12:47 PM CDT (9/24)
Length of Visible Light 13h 03m
Length of Day
12h 03m
Waning Gibbous, 73% of the Moon is Illuminated
Sep 24
Waning Gibbous
Sep 26
Last Quarter
Oct 4
New
Oct 11
First Quarter
Oct 18
Full

Hourly Weather History & Observations

Time (CDT) Temp. Dew Point Humidity Pressure Visibility Wind Dir Wind Speed Gust Speed Precip Events Conditions
12:13 AM 62.6 °F 48.2 °F 59% 29.84 in 10.0 mi SSE 13.8 mph - N/A   Clear
12:33 AM 62.6 °F 48.2 °F 59% 29.84 in 10.0 mi SSE 12.7 mph 18.4 mph N/A   Clear
12:53 AM 62.6 °F 48.2 °F 59% 29.84 in 10.0 mi SSE 15.0 mph - N/A   Clear
1:13 AM 60.8 °F 48.2 °F 63% 29.84 in 10.0 mi SSE 16.1 mph 21.9 mph N/A   Scattered Clouds
1:33 AM 60.8 °F 48.2 °F 63% 29.85 in 10.0 mi SSE 12.7 mph - N/A   Mostly Cloudy
1:53 AM 60.8 °F 48.2 °F 63% 29.85 in 10.0 mi SSE 11.5 mph - N/A   Mostly Cloudy
2:13 AM 60.8 °F 48.2 °F 63% 29.85 in 10.0 mi SSE 13.8 mph - N/A   Mostly Cloudy
2:33 AM 60.8 °F 48.2 °F 63% 29.86 in 10.0 mi SSE 15.0 mph - N/A   Overcast
2:53 AM 60.8 °F 48.2 °F 63% 29.86 in 10.0 mi SSE 12.7 mph - N/A   Overcast
3:13 AM 60.8 °F 48.2 °F 63% 29.86 in 10.0 mi SSE 11.5 mph - N/A   Mostly Cloudy
3:33 AM 59.0 °F 48.2 °F 67% 29.86 in 10.0 mi SSE 11.5 mph - N/A   Scattered Clouds
3:53 AM 57.2 °F 48.2 °F 72% 29.86 in 10.0 mi South 9.2 mph - N/A   Clear
4:13 AM 57.2 °F 48.2 °F 72% 29.86 in 10.0 mi SSE 8.1 mph - N/A   Clear
4:33 AM 59.0 °F 48.2 °F 67% 29.86 in 10.0 mi SSE 9.2 mph - N/A   Clear
4:53 AM 57.2 °F 48.2 °F 72% 29.87 in 10.0 mi SSE 11.5 mph - N/A   Clear
5:13 AM 57.2 °F 48.2 °F 72% 29.86 in 10.0 mi SSE 10.4 mph - N/A   Clear
5:33 AM 57.2 °F 48.2 °F 72% 29.87 in 10.0 mi South 10.4 mph - N/A   Clear
5:53 AM 57.2 °F 48.2 °F 72% 29.87 in 10.0 mi South 6.9 mph - N/A   Clear
6:13 AM 55.4 °F 48.2 °F 77% 29.87 in 10.0 mi SSE 8.1 mph - N/A   Clear
6:33 AM 55.4 °F 48.2 °F 77% 29.88 in 10.0 mi SSE 6.9 mph - N/A   Clear
6:53 AM 55.4 °F 48.2 °F 77% 29.89 in 10.0 mi South 4.6 mph - N/A   Clear
7:13 AM 55.4 °F 48.2 °F 77% 29.89 in 10.0 mi South 4.6 mph - N/A   Clear
7:33 AM 55.4 °F 48.2 °F 77% 29.90 in 10.0 mi SSE 3.5 mph - N/A   Clear
7:53 AM 55.4 °F 48.2 °F 77% 29.90 in 10.0 mi Calm Calm - N/A   Clear
8:13 AM 55.4 °F 48.2 °F 77% 29.90 in 10.0 mi South 3.5 mph - N/A   Clear
8:33 AM 55.4 °F 48.2 °F 77% 29.91 in 10.0 mi South 6.9 mph - N/A   Clear
8:53 AM 55.4 °F 48.2 °F 77% 29.92 in 10.0 mi SSW 3.5 mph - N/A   Clear
9:13 AM 57.2 °F 48.2 °F 72% 29.92 in 10.0 mi South 4.6 mph - N/A   Clear
9:33 AM 57.2 °F 48.2 °F 72% 29.92 in 10.0 mi SSW 3.5 mph - N/A   Clear
9:53 AM 57.2 °F 48.2 °F 72% 29.93 in 10.0 mi SSE 3.5 mph - N/A   Clear
10:13 AM 57.2 °F 48.2 °F 72% 29.93 in 10.0 mi South 4.6 mph - N/A   Clear
10:33 AM 57.2 °F 48.2 °F 72% 29.94 in 10.0 mi SSW 4.6 mph - N/A   Clear
10:53 AM 59.0 °F 50.0 °F 72% 29.94 in 10.0 mi South 4.6 mph - N/A   Clear
11:13 AM 60.8 °F 50.0 °F 68% 29.94 in 10.0 mi South 4.6 mph - N/A   Clear
11:33 AM 60.8 °F 50.0 °F 68% 29.95 in 10.0 mi Calm Calm - N/A   Clear
11:53 AM 62.6 °F 51.8 °F 68% 29.94 in 10.0 mi South 4.6 mph - N/A   Clear
12:13 PM 62.6 °F 50.0 °F 63% 29.94 in 10.0 mi Calm Calm - N/A   Clear
12:33 PM 62.6 °F 51.8 °F 68% 29.94 in 10.0 mi Calm Calm - N/A   Clear
12:53 PM 62.6 °F 51.8 °F 68% 29.94 in 10.0 mi Calm Calm - N/A   Clear
1:13 PM 64.4 °F 51.8 °F 64% 29.94 in 10.0 mi Calm Calm - N/A   Clear
1:33 PM 66.2 °F 51.8 °F 60% 29.93 in 10.0 mi Calm Calm - N/A   Clear
1:53 PM 66.2 °F 51.8 °F 60% 29.93 in 10.0 mi Calm Calm - N/A   Scattered Clouds
2:13 PM 66.2 °F 51.8 °F 60% 29.92 in 10.0 mi Calm Calm - N/A   Mostly Cloudy
2:33 PM 68.0 °F 51.8 °F 56% 29.92 in 10.0 mi Calm Calm - N/A   Mostly Cloudy
2:53 PM 69.8 °F 51.8 °F 53% 29.91 in 10.0 mi Calm Calm - N/A   Scattered Clouds
3:13 PM 69.8 °F 51.8 °F 53% 29.91 in 10.0 mi Calm Calm - N/A   Scattered Clouds
3:33 PM 69.8 °F 51.8 °F 53% 29.91 in 10.0 mi Calm Calm - N/A   Scattered Clouds
3:53 PM 69.8 °F 51.8 °F 53% 29.90 in 10.0 mi Calm Calm - N/A   Scattered Clouds
4:13 PM 69.8 °F 51.8 °F 53% 29.90 in 10.0 mi Calm Calm - N/A   Mostly Cloudy
4:33 PM 69.8 °F 51.8 °F 53% 29.90 in 10.0 mi Calm Calm - N/A   Overcast
4:53 PM 71.6 °F 53.6 °F 53% 29.90 in 10.0 mi Calm Calm - N/A   Mostly Cloudy
5:13 PM 71.6 °F 51.8 °F 50% 29.90 in 10.0 mi Calm Calm - N/A   Scattered Clouds
5:33 PM 71.6 °F 51.8 °F 50% 29.89 in 10.0 mi Calm Calm - N/A   Scattered Clouds
5:53 PM 71.6 °F 53.6 °F 53% 29.89 in 10.0 mi Calm Calm - N/A   Scattered Clouds
6:13 PM 71.6 °F 53.6 °F 53% 29.89 in 10.0 mi Calm Calm - N/A   Clear
6:33 PM 69.8 °F 51.8 °F 53% 29.89 in 10.0 mi Calm Calm - N/A   Scattered Clouds
6:53 PM 69.8 °F 51.8 °F 53% 29.89 in 10.0 mi Calm Calm - N/A   Scattered Clouds
7:13 PM 68.0 °F 53.6 °F 60% 29.89 in 10.0 mi Calm Calm - N/A   Scattered Clouds
7:33 PM 66.2 °F 53.6 °F 64% 29.89 in 10.0 mi Calm Calm - N/A   Scattered Clouds
7:53 PM 64.4 °F 53.6 °F 68% 29.90 in 10.0 mi ENE 3.5 mph - N/A   Clear
8:13 PM 62.6 °F 53.6 °F 72% 29.90 in 10.0 mi East 3.5 mph - N/A   Clear
8:33 PM 62.6 °F 53.6 °F 72% 29.90 in 10.0 mi Calm Calm - N/A   Clear
8:53 PM 62.6 °F 53.6 °F 72% 29.90 in 10.0 mi East 3.5 mph - N/A   Clear
9:13 PM 64.4 °F 53.6 °F 68% 29.90 in 10.0 mi ESE 5.8 mph - N/A   Clear
9:33 PM 60.8 °F 53.6 °F 77% 29.90 in 10.0 mi SSE 5.8 mph - N/A   Clear
9:53 PM 60.8 °F 53.6 °F 77% 29.90 in 10.0 mi SE 5.8 mph - N/A   Clear
10:13 PM 60.8 °F 51.8 °F 72% 29.91 in 10.0 mi SE 6.9 mph - N/A   Clear
10:33 PM 60.8 °F 51.8 °F 72% 29.91 in 10.0 mi SE 5.8 mph - N/A   Clear
10:53 PM 60.8 °F 51.8 °F 72% 29.91 in 10.0 mi SE 6.9 mph - N/A   Clear
11:13 PM 60.8 °F 51.8 °F 72% 29.91 in 10.0 mi SE 6.9 mph - N/A   Clear
11:33 PM 60.8 °F 51.8 °F 72% 29.91 in 10.0 mi SSE 6.9 mph - N/A   Clear
11:53 PM 57.2 °F 51.8 °F 82% 29.92 in 10.0 mi SSE 5.8 mph - N/A   Clear